Flag for Mexico Weather past 2 weeks in Guadalajara, Jalisco, Mexico

Now
79 °F

Scattered clouds.


Feels Like: 80 °F
Forecast: N/A
Wind: 5 mph from Southwest

Location: Don Miguel / Guadalaj

Current Time: Jul 5, 2015 at 3:36:52 PM

Latest Report: Jul 5, 2015 at 2:50 PM


Visibility: 12 mi

Pressure: 30.21 "Hg (25.33 "Hg at 1543m altitude)

Humidity: 48%

Dew point: 57 °F

Location of GuadalajaraLocation

Historic Weather in Guadalajara — Graph

°F

Guadalajara temperature yesterday

Maximum temperature yesterday: 73 °F (at 12:52 PM)
Minimum temperature yesterday: 63 °F (at 12:52 AM)
Average temperature yesterday: 67 °F

Past Weeks' High & Low Weather Summary

 TemperatureHumidityPressure
High86 °F (Jun 22, 4:50 PM)94% (Jun 21, 4:57 AM)30.29 "Hg (Jun 21, 4:57 AM)
Low61 °F (Jun 23, 1:54 AM)25% (Jun 30, 4:48 PM)29.72 "Hg (Jun 30, 6:49 PM)
Average70 °F71%30.09 "Hg
* Reported Jun 20 1:47 PM — Jul 5 1:53 PM, Guadalajara, Weather by CustomWeather, © 2015

Note: Actual official high and low records may vary slightly from our data, if they occured in-between our weather recording intervals... More about our weather records

Advertising

Guadalajara weather history for previous 24 hours

 ConditionsComfort  
Time TempWeatherWind HumidityBarometerVisibility
1:53 PM
Sun, Jul 5
77 °FPartly sunny.No wind54%30.23 "Hg12 mi
11:48 AM75 °FPartly sunny.6 mph57%30.27 "Hg10 mi
10:50 AM72 °FScattered clouds.3 mph69%30.27 "Hg10 mi
9:53 AM70 °FScattered clouds.No wind69%29.96 "Hg10 mi
7:50 AM64 °FPartly cloudy.No wind88%30.25 "Hg7 mi
6:52 AM64 °FMostly cloudy.5 mph94%29.95 "Hg8 mi
5:46 AM63 °FPartly cloudy.No wind94%30.21 "Hg8 mi
4:47 AM64 °FMostly cloudy.3 mph94%30.21 "Hg8 mi
3:50 AM64 °FMostly cloudy.No wind88%29.95 "Hg8 mi
1:48 AM66 °FLight rain. Passing clouds.No wind88%30.22 "Hg8 mi
12:53 AM66 °FPassing clouds.No wind88%29.92 "Hg8 mi
11:48 PM
Sat, Jul 4
66 °FPassing clouds.No wind88%30.22 "Hg8 mi
10:49 PM66 °FPartly cloudy.No wind83%30.20 "Hg8 mi
8:48 PM68 °FBroken clouds.No wind83%30.15 "Hg8 mi
7:49 PM70 °FBroken clouds.5 mph83%30.13 "Hg8 mi
6:50 PM70 °FBroken clouds.No wind78%29.86 "Hg8 mi
4:48 PM66 °FLight rain. Cloudy.3 mph83%30.16 "Hg7 mi
3:48 PM66 °FCloudy.7 mph78%29.91 "Hg6 mi
3:17 PM68 °FSleet. Cloudy.N/A73%30.18 "HgN/A
Weather by CustomWeather, © 2015

See weather overviewHow to use our weather pages